EBBRLOWI

Guest
Details From EBBR - Brussels Airport
To LOWI - Innsbruck Kranebitten
Flight Number -
Tags Generated
Created
Modified
Stats Distance 347 nm / 642 km
Max Altitude 0 ft / 0 m
Waypoints 3
Social Downloads 3
Likes 0
Share VATSIM

Download

Looking for another format? Having issues loading an existing format? Contact us
Advertisement - Login to hide

Notes

Generated

Route

EBBR NORTO LOWI

ID Type Via Altitude Latitude Longitude Leg Dist Tot Dist Heading (true) Name
O EBBR APT - 0 ft / 0 m 50.88681˚ 4.49135˚ - 0 nm - -
NORTO FIX - 0 ft / 0 m 47.26636˚ 11.25182˚ 343 nm 343 nm 127° / 132° -
O LOWI APT - 0 ft / 0 m 47.25883˚ 11.33091˚ 3 nm 346 nm 98° / 98° -

Altitude Profile

Advertisement - Login to hide

Weather


0- 5 10 15 20 25 30 35+ Temperature / ° C

Clouds and Precipitation
Forecast for 2018-04-26 18:00 UTC. Updated 3 hours ago

Ground ~20,000 ft ~40,000 ft Winds

EBBR

Details ICAO EBBR (BRU)
Name Brussels Airport
Region Belgium
Timezone Europe/Brussels (UTC+2.0)
Stats Elevation 184 ft / 56 m (AMSL)
Location 50.899948° 4.492814°
Runways 3
Magnetic Variation 1.173° E

METAR

EBBR 262020Z 24007KT CAVOK 09/02 Q1017 NOSIG

Decode

TAF

TAF EBBR 261701Z 2618/2724 24008KT CAVOK= TAF EHAM 261653Z 2618/2724 23015KT 9999 FEW030 BECMG 2621/2624 21007KT PROB30 TEMPO 2712/2715 7000 -RA BKN040 BECMG 2714/2717 08007KT

Decode

Departure Runways

ID Width Length Bearing (true) Bearing (mag) Surface Threshold Offset Overrun Length
02 164 ft / 50 m 9,896 ft / 3,016 m 14.41° 13.24° Asphalt 249 ft / 76 m 0 ft / 0 m
07L 148 ft / 45 m 12,106 ft / 3,690 m 65.16° 63.99° Asphalt 801 ft / 244 m 0 ft / 0 m
07R 148 ft / 45 m 10,703 ft / 3,262 m 69.90° 68.73° Asphalt 499 ft / 152 m 0 ft / 0 m
20 164 ft / 50 m 9,896 ft / 3,016 m 194.42° 193.25° Asphalt 751 ft / 229 m 0 ft / 0 m
25L 148 ft / 45 m 10,703 ft / 3,262 m 249.93° 248.76° Asphalt 499 ft / 152 m 0 ft / 0 m
25R 148 ft / 45 m 12,106 ft / 3,690 m 245.20° 244.03° Asphalt 801 ft / 244 m 0 ft / 0 m

LOWI

Details ICAO LOWI (INN)
Name Innsbruck Kranebitten
Region Austria
Timezone Europe/Vienna (UTC+2.0)
Stats Elevation 1,906 ft / 581 m (AMSL)
Location 47.260226° 11.343967°
Runways 1
Magnetic Variation 3.062° E

METAR

LOWI 262020Z 08003KT 040V130 9999 FEW040 BKN055 10/05 Q1020 NOSIG

Decode

TAF

TAF TAF LOWI 261715Z 2618/2718 09004KT 9999 FEW030 BKN060 TX21/2714Z TN07/2704Z BECMG 2620/2622 SCT060 BECMG 2705/2707 27008KT CAVOK BECMG 2708/2710 12012G25KT TEMPO 2710/2718 13018G35KT

Decode

Destination Runways

ID Width Length Bearing (true) Bearing (mag) Surface Threshold Offset Overrun Length
08 148 ft / 45 m 6,545 ft / 1,995 m 81.02° 77.96° Asphalt 338 ft / 103 m 0 ft / 0 m
26 148 ft / 45 m 6,545 ft / 1,995 m 261.04° 257.98° Asphalt 0 ft / 0 m 0 ft / 0 m

Approach Navaids

Runway Type Ident Frequency Range Bearing (true) Bearing (mag) Slope Elevation
26 Localiser OEV 111.10 MHz 27 nm / 50 km 256.00° 252.94° - 1,906 ft / 581 m (AMSL)
26 Localiser OEJ 109.70 MHz 30 nm / 56 km 69.00° 65.94° - 1,906 ft / 581 m (AMSL)
26 Glidescope OEV 111.10 MHz 18 nm / 33 km 256.00° 252.94° 3.80° 1,911 ft / 582 m (AMSL)
26 DME OEJ 109.70 MHz 30 nm / 56 km - - - 1,906 ft / 581 m (AMSL)
26 DME OEV 111.10 MHz 27 nm / 50 km - - - 1,911 ft / 582 m (AMSL)

Popular Alternatives